Time,TemperatureF,DewpointF,PressureIn,WindDirection,WindDirectionDegrees,WindSpeedMPH,WindSpeedGustMPH,Humidity,HourlyPrecipIn,Conditions,Clouds,dailyrainin,SoftwareType,DateUTC
2013-01-30 00:03:00,58.0,55.0,30.00,SSE,162,0.0,0.0,89,0.00,,,-99.99,,2013-01-30 05:03:00,
2013-01-30 00:12:00,57.0,54.0,30.00,SSE,162,0.0,0.0,91,0.00,,,0.00,,2013-01-30 05:12:00,
2013-01-30 00:22:00,57.0,54.0,30.00,SSE,162,0.0,0.0,91,0.00,,,0.00,,2013-01-30 05:22:00,
2013-01-30 00:32:00,57.0,55.0,30.01,SSE,162,0.0,0.0,92,0.00,,,0.00,,2013-01-30 05:32:00,
2013-01-30 00:43:00,57.0,55.0,30.01,SSE,162,0.0,0.0,92,0.00,,,0.00,,2013-01-30 05:43:00,
2013-01-30 00:52:00,57.0,55.0,30.00,SSE,162,0.0,0.0,93,0.00,,,0.00,,2013-01-30 05:52:00,
2013-01-30 01:02:00,57.0,55.0,30.00,SSE,162,0.0,1.0,94,0.00,,,0.00,,2013-01-30 06:02:00,
2013-01-30 01:11:00,57.0,55.0,30.00,SSE,162,0.0,1.0,94,0.00,,,0.00,,2013-01-30 06:11:00,
2013-01-30 01:21:00,57.0,56.0,30.00,SSE,162,0.0,2.0,95,0.00,,,0.00,,2013-01-30 06:21:00,
2013-01-30 01:32:00,58.0,57.0,29.98,SSE,163,0.0,1.0,95,0.00,,,0.00,,2013-01-30 06:32:00,
2013-01-30 01:42:00,58.0,57.0,29.98,SSE,163,0.0,1.0,95,0.00,,,0.00,,2013-01-30 06:42:00,
2013-01-30 01:52:00,58.0,57.0,29.98,SSE,163,0.0,2.0,95,0.00,,,0.00,,2013-01-30 06:52:00,
2013-01-30 02:02:00,58.0,57.0,29.98,SSW,196,0.0,1.0,96,0.00,,,0.00,,2013-01-30 07:02:00,
2013-01-30 02:11:00,58.0,57.0,29.98,SSW,196,0.0,1.0,96,0.00,,,0.00,,2013-01-30 07:11:00,
2013-01-30 02:21:00,58.0,57.0,29.98,SSW,196,0.0,1.0,95,0.00,,,0.00,,2013-01-30 07:21:00,
2013-01-30 02:32:00,57.0,56.0,29.97,SSW,196,0.0,0.0,95,0.00,,,0.00,,2013-01-30 07:32:00,
2013-01-30 02:42:00,57.0,56.0,29.97,SSW,196,0.0,0.0,95,0.00,,,0.00,,2013-01-30 07:42:00,
2013-01-30 02:52:00,57.0,56.0,29.97,South,170,1.0,3.0,96,0.00,,,0.00,,2013-01-30 07:52:00,
2013-01-30 03:02:00,58.0,57.0,29.96,South,170,0.0,3.0,97,0.00,,,0.00,,2013-01-30 08:02:00,
2013-01-30 03:11:00,58.0,57.0,29.96,South,170,0.0,3.0,97,0.00,,,0.00,,2013-01-30 08:11:00,
2013-01-30 03:21:00,59.0,58.0,29.95,SSE,164,1.0,5.0,97,0.00,,,0.00,,2013-01-30 08:21:00,
2013-01-30 03:32:00,60.0,59.0,29.95,SSW,204,0.0,3.0,97,0.00,,,0.00,,2013-01-30 08:32:00,
2013-01-30 03:42:00,60.0,59.0,29.95,SSW,204,0.0,3.0,97,0.00,,,0.00,,2013-01-30 08:42:00,
2013-01-30 03:52:00,60.0,59.0,29.95,South,172,0.0,4.0,97,0.00,,,0.00,,2013-01-30 08:52:00,
2013-01-30 04:02:00,61.0,60.0,29.94,South,176,0.0,9.0,96,0.00,,,0.00,,2013-01-30 09:02:00,
2013-01-30 04:11:00,61.0,60.0,29.94,South,176,0.0,9.0,96,0.00,,,0.00,,2013-01-30 09:11:00,
2013-01-30 04:22:00,61.0,60.0,29.93,SSE,161,1.0,11.0,96,0.00,,,0.00,,2013-01-30 09:22:00,
2013-01-30 04:32:00,62.0,61.0,29.93,SSE,167,0.0,7.0,95,0.00,,,0.00,,2013-01-30 09:32:00,
2013-01-30 04:42:00,62.0,61.0,29.93,SSE,167,0.0,7.0,95,0.00,,,0.00,,2013-01-30 09:42:00,
2013-01-30 04:52:00,62.0,61.0,29.93,SSE,160,0.0,6.0,95,0.00,,,0.00,,2013-01-30 09:52:00,
2013-01-30 05:01:00,62.0,60.0,29.93,SSW,205,1.0,9.0,94,0.00,,,0.00,,2013-01-30 10:01:00,
2013-01-30 05:11:00,62.0,60.0,29.93,SSW,205,1.0,9.0,94,0.00,,,0.00,,2013-01-30 10:11:00,
2013-01-30 05:21:00,62.0,60.0,29.91,South,185,0.0,9.0,94,0.00,,,0.00,,2013-01-30 10:21:00,
2013-01-30 05:32:00,62.0,61.0,29.91,SSE,168,1.0,8.0,95,0.00,,,0.00,,2013-01-30 10:32:00,
2013-01-30 05:42:00,62.0,61.0,29.91,SSE,168,1.0,8.0,95,0.00,,,0.00,,2013-01-30 10:42:00,
2013-01-30 05:52:00,62.0,61.0,29.91,SSW,196,2.0,8.0,95,0.00,,,0.00,,2013-01-30 10:52:00,
2013-01-30 06:02:00,62.0,61.0,29.91,SSW,210,0.0,10.0,95,0.00,,,0.00,,2013-01-30 11:02:00,
2013-01-30 06:11:00,62.0,61.0,29.91,SSW,210,0.0,10.0,95,0.00,,,0.00,,2013-01-30 11:11:00,
2013-01-30 06:22:00,62.0,60.0,29.91,South,185,3.0,6.0,94,0.00,,,0.00,,2013-01-30 11:22:00,
2013-01-30 06:33:00,62.0,61.0,29.90,SSE,163,4.0,10.0,95,0.00,,,0.00,,2013-01-30 11:33:00,
2013-01-30 06:42:00,62.0,61.0,29.90,SSE,163,4.0,10.0,95,0.00,,,0.00,,2013-01-30 11:42:00,
2013-01-30 06:52:00,62.0,60.0,29.90,SSW,197,3.0,11.0,94,0.00,,,0.00,,2013-01-30 11:52:00,
2013-01-30 07:02:00,63.0,61.0,29.89,South,186,0.0,7.0,94,0.00,,,0.00,,2013-01-30 12:02:00,
2013-01-30 07:12:00,63.0,61.0,29.89,South,186,0.0,7.0,94,0.00,,,0.00,,2013-01-30 12:12:00,
2013-01-30 07:22:00,63.0,61.0,29.89,South,185,1.0,12.0,94,0.00,,,0.00,,2013-01-30 12:22:00,
2013-01-30 07:33:00,63.0,61.0,29.89,SSW,192,1.0,11.0,93,0.00,,,0.00,,2013-01-30 12:33:00,
2013-01-30 07:43:00,63.0,61.0,29.89,SSW,192,1.0,11.0,93,0.00,,,0.00,,2013-01-30 12:43:00,
2013-01-30 08:03:00,63.0,61.0,29.88,SSE,168,4.0,9.0,93,0.00,,,0.00,,2013-01-30 13:03:00,
2013-01-30 08:12:00,63.0,61.0,29.88,SSE,168,4.0,9.0,93,0.00,,,0.00,,2013-01-30 13:12:00,
2013-01-30 08:23:00,64.0,62.0,29.88,SSW,207,4.0,13.0,92,0.00,,,0.00,,2013-01-30 13:23:00,
2013-01-30 08:33:00,64.0,62.0,29.87,SSE,151,5.0,14.0,92,0.00,,,0.00,,2013-01-30 13:33:00,
2013-01-30 08:43:00,64.0,62.0,29.87,SSE,151,5.0,14.0,92,0.00,,,0.00,,2013-01-30 13:43:00,
2013-01-30 08:53:00,65.0,62.0,29.87,South,185,4.0,19.0,90,0.00,,,0.00,,2013-01-30 13:53:00,
2013-01-30 09:03:00,65.0,61.0,29.87,SSW,212,5.0,18.0,88,0.00,,,0.00,,2013-01-30 14:03:00,
2013-01-30 09:12:00,65.0,61.0,29.87,SSW,212,5.0,18.0,88,0.00,,,0.00,,2013-01-30 14:12:00,
2013-01-30 09:23:00,66.0,62.0,29.86,SSE,165,8.0,17.0,86,0.00,,,0.00,,2013-01-30 14:23:00,
2013-01-30 09:33:00,66.0,61.0,29.85,East,93,5.0,20.0,85,0.00,,,0.00,,2013-01-30 14:33:00,
2013-01-30 09:42:00,66.0,61.0,29.85,East,93,5.0,20.0,85,0.00,,,0.00,,2013-01-30 14:42:00,
2013-01-30 09:53:00,66.0,61.0,29.85,SSE,160,7.0,19.0,84,0.00,,,0.00,,2013-01-30 14:53:00,
2013-01-30 10:03:00,67.0,62.0,29.84,SSW,210,6.0,24.0,83,0.00,,,0.00,,2013-01-30 15:03:00,
2013-01-30 10:12:00,67.0,62.0,29.84,SSW,210,6.0,24.0,83,0.00,,,0.00,,2013-01-30 15:12:00,
2013-01-30 10:23:00,67.0,62.0,29.84,SSW,206,6.0,17.0,83,0.00,,,0.00,,2013-01-30 15:23:00,
2013-01-30 10:33:00,68.0,62.0,29.84,SSW,212,9.0,19.0,81,0.00,,,0.00,,2013-01-30 15:33:00,
2013-01-30 10:43:00,68.0,62.0,29.84,SSW,212,9.0,19.0,81,0.00,,,0.00,,2013-01-30 15:43:00,
2013-01-30 10:53:00,68.0,62.0,29.84,SSE,166,4.0,13.0,81,0.00,,,0.00,,2013-01-30 15:53:00,
2013-01-30 11:03:00,68.0,62.0,29.84,SSW,205,5.0,15.0,81,0.00,,,0.00,,2013-01-30 16:03:00,
2013-01-30 11:12:00,68.0,62.0,29.84,SSW,205,5.0,15.0,81,0.00,,,0.00,,2013-01-30 16:12:00,
2013-01-30 11:23:00,68.0,62.0,29.83,SW,219,8.0,22.0,80,0.00,,,0.00,,2013-01-30 16:23:00,
2013-01-30 11:32:00,69.0,62.0,29.82,SW,220,11.0,19.0,79,0.00,,,0.00,,2013-01-30 16:32:00,
2013-01-30 11:42:00,69.0,62.0,29.82,SW,220,11.0,19.0,79,0.00,,,0.00,,2013-01-30 16:42:00,
2013-01-30 11:52:00,69.0,62.0,29.82,SW,220,11.0,19.0,79,0.00,,,0.00,,2013-01-30 16:52:00,
2013-01-30 12:02:00,69.0,62.0,29.81,SSW,205,3.0,17.0,79,0.00,,,0.00,,2013-01-30 17:02:00,
2013-01-30 12:13:00,69.0,62.0,29.81,SSW,205,3.0,17.0,79,0.00,,,0.00,,2013-01-30 17:13:00,
2013-01-30 12:23:00,69.0,63.0,29.80,SSW,197,4.0,14.0,80,0.00,,,0.00,,2013-01-30 17:23:00,
2013-01-30 12:33:00,67.0,63.0,29.78,SSW,192,2.0,15.0,87,0.01,,,0.01,,2013-01-30 17:33:00,
2013-01-30 12:43:00,67.0,63.0,29.78,SSW,192,2.0,15.0,87,0.01,,,0.01,,2013-01-30 17:43:00,
2013-01-30 12:53:00,66.0,63.0,29.78,South,171,4.0,13.0,90,0.01,,,0.01,,2013-01-30 17:53:00,
2013-01-30 13:03:00,66.0,63.0,29.76,SSW,203,1.0,13.0,90,0.01,,,0.01,,2013-01-30 18:03:00,
2013-01-30 13:13:00,66.0,63.0,29.76,SSW,203,1.0,13.0,90,0.01,,,0.01,,2013-01-30 18:13:00,
2013-01-30 13:23:00,67.0,64.0,29.75,SSW,201,5.0,15.0,89,0.01,,,0.01,,2013-01-30 18:23:00,
2013-01-30 13:33:00,67.0,63.0,29.73,South,183,7.0,12.0,88,0.00,,,0.01,,2013-01-30 18:33:00,
2013-01-30 13:42:00,67.0,63.0,29.73,South,183,7.0,12.0,88,0.00,,,0.01,,2013-01-30 18:42:00,
2013-01-30 13:53:00,68.0,64.0,29.73,South,183,4.0,13.0,87,0.00,,,0.01,,2013-01-30 18:53:00,
2013-01-30 14:03:00,69.0,64.0,29.71,South,187,3.0,13.0,85,0.00,,,0.01,,2013-01-30 19:03:00,
2013-01-30 14:12:00,69.0,64.0,29.71,South,187,3.0,13.0,85,0.00,,,0.01,,2013-01-30 19:12:00,
2013-01-30 14:22:00,69.0,64.0,29.70,South,183,5.0,14.0,83,0.00,,,0.01,,2013-01-30 19:22:00,
2013-01-30 14:33:00,69.0,64.0,29.69,SSE,161,2.0,16.0,83,0.00,,,0.01,,2013-01-30 19:33:00,
2013-01-30 14:43:00,69.0,64.0,29.69,SSE,161,2.0,16.0,83,0.00,,,0.01,,2013-01-30 19:43:00,
2013-01-30 14:53:00,70.0,64.0,29.67,South,191,9.0,18.0,80,0.00,,,0.01,,2013-01-30 19:53:00,
2013-01-30 15:03:00,70.0,63.0,29.67,SSW,193,7.0,15.0,78,0.00,,,0.01,,2013-01-30 20:03:00,
2013-01-30 15:12:00,70.0,63.0,29.67,SSW,193,7.0,15.0,78,0.00,,,0.01,,2013-01-30 20:12:00,
2013-01-30 15:22:00,71.0,63.0,29.65,South,179,8.0,18.0,76,0.00,,,0.01,,2013-01-30 20:22:00,
2013-01-30 15:33:00,71.0,63.0,29.65,SSW,204,5.0,20.0,75,0.00,,,0.01,,2013-01-30 20:33:00,
2013-01-30 15:42:00,71.0,63.0,29.65,SSW,204,5.0,20.0,75,0.00,,,0.01,,2013-01-30 20:42:00,
2013-01-30 15:53:00,71.0,62.0,29.63,SSW,197,13.0,24.0,74,0.00,,,0.01,,2013-01-30 20:53:00,
2013-01-30 16:03:00,71.0,62.0,29.64,South,170,7.0,22.0,74,0.00,,,0.01,,2013-01-30 21:03:00,
2013-01-30 16:12:00,71.0,62.0,29.64,South,170,7.0,22.0,74,0.00,,,0.01,,2013-01-30 21:12:00,
2013-01-30 16:23:00,72.0,63.0,29.62,SSE,161,9.0,26.0,73,0.00,,,0.01,,2013-01-30 21:23:00,
2013-01-30 16:32:00,72.0,63.0,29.61,SW,219,7.0,22.0,73,0.03,,,0.04,,2013-01-30 21:32:00,
2013-01-30 16:42:00,72.0,63.0,29.61,SW,219,7.0,22.0,73,0.03,,,0.04,,2013-01-30 21:42:00,
2013-01-30 16:53:00,72.0,62.0,29.61,SSE,165,11.0,21.0,72,0.03,,,0.04,,2013-01-30 21:53:00,
2013-01-30 17:03:00,71.0,61.0,29.61,SW,224,8.0,25.0,71,0.03,,,0.04,,2013-01-30 22:03:00,
2013-01-30 17:12:00,71.0,61.0,29.61,SW,224,8.0,25.0,71,0.03,,,0.04,,2013-01-30 22:12:00,
2013-01-30 17:22:00,71.0,62.0,29.60,SW,215,8.0,19.0,72,0.03,,,0.04,,2013-01-30 22:22:00,
2013-01-30 17:32:00,71.0,62.0,29.60,SW,214,4.0,17.0,73,0.00,,,0.04,,2013-01-30 22:32:00,
2013-01-30 17:42:00,71.0,62.0,29.60,SW,214,4.0,17.0,73,0.00,,,0.04,,2013-01-30 22:42:00,
2013-01-30 17:53:00,70.0,61.0,29.59,SSE,168,6.0,19.0,72,0.00,,,0.04,,2013-01-30 22:53:00,
2013-01-30 18:02:00,70.0,60.0,29.59,South,176,8.0,19.0,71,0.00,,,0.04,,2013-01-30 23:02:00,
2013-01-30 18:12:00,70.0,60.0,29.59,South,176,8.0,19.0,71,0.00,,,0.04,,2013-01-30 23:12:00,
2013-01-30 18:22:00,70.0,60.0,29.59,SSW,192,9.0,20.0,71,0.00,,,0.04,,2013-01-30 23:22:00,
2013-01-30 18:33:00,70.0,60.0,29.57,SSW,201,6.0,26.0,71,0.00,,,0.04,,2013-01-30 23:33:00,
2013-01-30 18:42:00,70.0,60.0,29.57,SSW,201,6.0,26.0,71,0.00,,,0.04,,2013-01-30 23:42:00,
2013-01-30 18:52:00,70.0,60.0,29.54,South,185,8.0,22.0,71,0.00,,,0.04,,2013-01-30 23:52:00,
2013-01-30 19:02:00,70.0,60.0,29.54,SW,220,11.0,16.0,70,0.00,,,0.04,,2013-01-31 00:02:00,
2013-01-30 19:11:00,70.0,60.0,29.54,SW,220,11.0,16.0,70,0.00,,,0.04,,2013-01-31 00:11:00,
2013-01-30 19:22:00,70.0,60.0,29.53,South,170,5.0,22.0,70,0.00,,,0.04,,2013-01-31 00:22:00,
2013-01-30 19:32:00,70.0,60.0,29.53,South,180,8.0,27.0,70,0.00,,,0.04,,2013-01-31 00:32:00,
2013-01-30 19:42:00,70.0,60.0,29.53,South,180,8.0,27.0,70,0.00,,,0.04,,2013-01-31 00:42:00,
2013-01-30 19:53:00,70.0,60.0,29.52,SSE,158,5.0,22.0,71,0.00,,,0.04,,2013-01-31 00:53:00,
2013-01-30 20:02:00,70.0,60.0,29.50,SW,220,15.0,34.0,70,0.00,,,0.04,,2013-01-31 01:02:00,
2013-01-30 20:12:00,70.0,60.0,29.50,SW,220,15.0,34.0,70,0.00,,,0.04,,2013-01-31 01:12:00,
2013-01-30 20:22:00,70.0,60.0,29.50,South,190,4.0,22.0,70,0.00,,,0.04,,2013-01-31 01:22:00,
2013-01-30 20:32:00,70.0,60.0,29.49,SSW,201,9.0,23.0,71,0.00,,,0.04,,2013-01-31 01:32:00,
2013-01-30 20:42:00,70.0,60.0,29.49,SSW,201,9.0,23.0,71,0.00,,,0.04,,2013-01-31 01:42:00,
2013-01-30 20:53:00,70.0,61.0,29.49,South,180,3.0,30.0,73,0.00,,,0.04,,2013-01-31 01:53:00,
2013-01-30 21:01:00,70.0,61.0,29.48,SSW,198,3.0,26.0,74,0.00,,,0.04,,2013-01-31 02:01:00,
2013-01-30 21:12:00,70.0,61.0,29.48,SSW,198,3.0,26.0,74,0.00,,,0.04,,2013-01-31 02:12:00,
2013-01-30 21:22:00,70.0,61.0,29.47,SSW,207,9.0,26.0,74,0.00,,,0.04,,2013-01-31 02:22:00,
2013-01-30 21:32:00,70.0,61.0,29.46,South,173,9.0,25.0,74,0.00,,,0.04,,2013-01-31 02:32:00,
2013-01-30 21:42:00,70.0,61.0,29.46,South,173,9.0,25.0,74,0.00,,,0.04,,2013-01-31 02:42:00,
2013-01-30 21:52:00,70.0,61.0,29.46,South,173,9.0,25.0,74,0.00,,,0.04,,2013-01-31 02:52:00,
2013-01-30 22:03:00,70.0,61.0,29.45,SSW,207,11.0,23.0,74,0.00,,,0.04,,2013-01-31 03:03:00,
2013-01-30 22:11:00,70.0,61.0,29.45,SSW,207,11.0,23.0,74,0.00,,,0.04,,2013-01-31 03:11:00,
2013-01-30 22:21:00,70.0,61.0,29.45,SSW,207,11.0,23.0,74,0.00,,,0.04,,2013-01-31 03:21:00,
2013-01-30 22:32:00,70.0,61.0,29.45,SSW,207,11.0,23.0,74,0.00,,,0.04,,2013-01-31 03:32:00,